カタリナ彗星

C/2013 V4 ( Catalina )

English version
Home page
Updated on May 22, 2017

---------------------------------------------------------------------

・ プロフィール

発見日 2013年11月9日
発見光度 17.7等
発見者 R. E. Hill (Catalina Sky Survey)

・ 写真集

・ 軌道要素

Epoch 2015 Oct. 25.0 TT = JDT 2457320.5
T 2015 Oct. 7.60199 TT                                  MPCW
q   5.1854063            (2000.0)            P               Q
z  -0.0004964      Peri.   40.44941     +0.22785905     -0.60308060
 +/-0.0000002      Node    55.62129     +0.46389090     -0.62303145
e   1.0025742      Incl.   67.85537     +0.85608731     +0.49812208
From 2165 observations 2013 Oct. 23-2017 May 6, mean residual 0".5.

・ 星図

・ 光度変化

        m1 = 5.0 + 5 logΔ + 10.0 log r

---------------------------------------------------------------------

軌道要素はM.P.E.C. 2017-J52に掲載されたものです。
星図はステラナビゲータ Ver.8 (アストロアーツ) で作成したものです。
光度グラフはComet for Windowsで作成したものです。

---------------------------------------------------------------------

Copyright(C) Seiichi Yoshida (comet@aerith.net). All rights reserved.